Lexington Weather

Lexington, Massachusetts, USA

29°F
4/1/2020 5:02am 
  • Lexington Conditions: Clear
  • Temperature: 29.3°F / -1.5°CWarmer 0.2°F than last hour.
  • Dew Point: 27.5°FIncreased 0.4°Fsince last hour.
  • Relative Humidity: 93%Increased 1.0% since last hour.
  • Wind: Wind from NNW NNW 2 mph, 10-min avg: 1 mph, gust: 2 mph
  • Barometer: 29.86 in Steady
  • Visibility: 10 miles
  • Snow Today: 0.0 in
  •   

Regional Weather Roundup
for Boston / Norton, MA

        
000
ASUS41 KBOX 311605
RWRBOX

REGIONAL WEATHER ROUNDUP
NATIONAL WEATHER SERVICE BOSTON/NORTON MA
1200 PM EDT TUE MAR 31 2020

NOTE:  "FAIR" INDICATES FEW OR NO CLOUDS BELOW 12,000 FEET WITH NO 
SIGNIFICANT WEATHER AND/OR OBSTRUCTIONS TO VISIBILITY.

MAZALL-311700-
EASTERN MASSACHUSETTS
  
CITY           SKY/WX    TMP DP  RH WIND       PRES   REMARKS
BOSTON         FAIR      39  28  64 NE15      30.06F WCI  31          
BEVERLY        PTSUNNY   39  27  62 NE12G22   30.05F WCI  32          
LAWRENCE       FAIR      40  26  57 N8        30.07F                  
BEDFORD        FAIR      43  25  49 NE9       30.04F                  
BLUE HILL        N/A     38  27  64 NE9G21    30.01F WCI  31          
NORWOOD        FAIR      43  27  53 NE9       30.04F                  
MARSHFIELD     CLOUDY    41  30  65 N8G20     30.05S                  
PLYMOUTH       CLOUDY    40  28  62 N15G24    30.02F WCI  32          
TAUNTON        PTSUNNY   40  27  59 N12G20    30.04F                  
NEW BEDFORD    PTSUNNY   40  29  64 N13G18    30.02F                  
$$

MAZALL-311700-
CAPE COD AND THE ISLANDS
  
CITY           SKY/WX    TMP DP  RH WIND       PRES   REMARKS
FALMOUTH       CLOUDY    39  30  70 N17G23    30.02  WCI  30          
HYANNIS        CLOUDY    41  28  60 N14G23    30.00S                  
CHATHAM        CLOUDY    39  26  59 NE12G22   30.02S WCI  32          
PROVINCETOWN   CLOUDY    38  29  70 N18       30.04F WCI  28          
NANTUCKET      CLOUDY    41  29  62 N21       30.00F WCI  32          
MARTHAS VNYRD  CLOUDY    42  29  59 N18       30.01S                  
$$
 
MAZALL-311700-
CENTRAL AND WESTERN MASSACHUSETTS
  
CITY           SKY/WX    TMP DP  RH WIND       PRES   REMARKS
WORCESTER      CLOUDY    34  28  79 NE8       30.01F WCI  27          
FITCHBURG      CLOUDY    38  28  67 N9        30.05F WCI  31          
ORANGE         CLOUDY    41  30  65 NE7       30.04F                  
SPRINGFIELD    PTSUNNY   43  30  61 CALM      30.03F                  
WESTFIELD      PTSUNNY   43  29  57 N6        30.04F                  
NORTH ADAMS    CLOUDY    43  31  62 SE12      30.01F                  
PITTSFIELD     PTSUNNY   44  32  62 NE6       29.99F                  
$$
 
RIZALL-311700-
RHODE ISLAND
  
CITY           SKY/WX    TMP DP  RH WIND       PRES   REMARKS
PROVIDENCE     FAIR      44  28  53 NE14G20   30.03F                  
NEWPORT        PTSUNNY   43  29  57 NE13G21   30.02F                  
BLOCK ISLAND   CLOUDY    40  29  64 NE12G20   30.04F                  
SMITHFIELD     FAIR      42  28  57 NE9       30.02F                  
WESTERLY       FAIR      47  28  47 N10       30.04F                  
$$
 
CTZALL-311700-
CONNECTICUT
  
CITY           SKY/WX    TMP DP  RH WIND       PRES   REMARKS
BRADLEY INTL   PTSUNNY   44  29  55 VRB5      30.04F                  
HARTFORD       CLOUDY    45  31  58 MISG      30.05F                  
BRIDGEPORT     CLOUDY    42  32  67 E7        30.05F                  
DANBURY        CLOUDY    41  33  73 VRB5      30.04F                  
GROTON         FAIR      43  30  60 VRB7      30.03F                  
NEW HAVEN      CLOUDY    44  32  62 N5        30.04F                  
CHESTER        PTSUNNY   46  28  49 CALM      30.03F                  
MERIDEN        CLOUDY    42  29  59 VRB6      30.05F                  
WILLIMANTIC    FAIR      45  29  53 VRB3      30.03F                  
OXFORD         CLOUDY    39  33  79 N9        30.03F                  
$$

MEZ002-015-021-024-NHZ003-005-008-011-012-014-VTZ005-008-311700-
NORTHERN NEW ENGLAND
  
CITY           SKY/WX    TMP DP  RH WIND       PRES   REMARKS
PORTLAND ME    PTSUNNY   38  26  62 NE15G21   30.08F WCI  29          
BANGOR ME      PTSUNNY   35  24  64 N17       30.07F WCI  25          
CONCORD NH     FAIR      42  24  49 NE9       30.05F                  
MANCHESTER NH  FAIR      41  24  51 NE9       30.04F                  
NASHUA NH      FAIR      41  26  55 N9        30.06F                  
PORTSMOUTH NH  NOT AVBL                                               
JAFFREY NH     CLOUDY    37  31  78 VRB7      30.02F WCI  32          
KEENE NH       CLOUDY    39  30  70 NE7       30.04F                  
BURLINGTON VT  PTSUNNY   44  34  67 NW10      30.07F                  
MT. WASHINGTON PTSUNNY   21   7  53 NE15        N/A  WCI   8          
$$

NYZ052-076-311700-
EASTERN NEW YORK
  
CITY           SKY/WX    TMP DP  RH WIND       PRES   REMARKS
ALBANY         PTSUNNY   44  33  65 NW5       30.04F                  
NEW YORK CITY  CLOUDY    44  34  67 NE9       30.04F                  
$$
 
ANZALL-311700-
MARINE OBSERVATIONS
  
STATION/POSITION TIME  TEMP    WIND        PRES    VSBY  WAVE
                       AIR SEA DIR/SP/G                  HT/PER
                 (UTC) (F)     (DEG/KT/KT) (MB)    (MI)  (FT/S)
BOSTON BUOY      1550   36 43   10/ 19/ 23 1017.2F         8/10
BUZZARDS BAY     1500           10/ 15/ 17 1017.5F
NANTUCKET SOUND  1540                        N/A           2/ 4
MASS BAY-STELLWA 1504   35 42   30/ 17/ 21 1016.5F  1 7/8  8/ 8
ISLE OF SHOALS   1500   33      30/ 20/ 22 1018.2F
S OF BLOCK IS    1530      43                N/A           6/10
$$

......................KEY.........................
  SKY/WX - SKY CONDITION/PRESENT WEATHER
  TMP    - TEMPERATURE IN FAHRENHEIT
  DWPT   - DEWPOINT IN FAHRENHEIT
  RH     - RELATIVE HUMIDITY IN PERCENT
  WIND   - DIRECTION AND SPEED IN MPH
  PRES   - MEAN SEA LEVEL PRESSURE IN INCHES OF HG
  WCI    - WIND CHILL INDEX
  VSB    - VISIBILITY IN MILES
  HX     - HEAT INDEX
  TC     - TEMPERATURE IN CELSIUS
  VRB    - VARIABLE WIND DIRECTION
  N/A    - NOT AVAILABLE
  
      

Other recent Regional Weather Roundups

Wed Apr 1, 4:05am

Wed Apr 1, 3:04am

Wed Apr 1, 2:04am

Wed Apr 1, 1:04am

Wed Apr 1, 12:04am

Tue Mar 31, 11:04pm

Tue Mar 31, 10:04pm

Tue Mar 31, 9:04pm

Tue Mar 31, 8:04pm

Tue Mar 31, 7:04pm

Tue Mar 31, 6:04pm

Tue Mar 31, 4:04pm

Tue Mar 31, 3:04pm

Tue Mar 31, 2:04pm

Tue Mar 31, 1:04pm

Tue Mar 31, 11:04am

Tue Mar 31, 10:05am

Tue Mar 31, 9:04am

Tue Mar 31, 8:04am

Tue Mar 31, 7:05am

Tue Mar 31, 6:04am

Tue Mar 31, 5:04am

Tue Mar 31, 4:04am

Tue Mar 31, 3:04am

Tue Mar 31, 2:04am

Tue Mar 31, 1:04am

Tue Mar 31, 12:04am

Mon Mar 30, 11:04pm

Mon Mar 30, 10:04pm

Mon Mar 30, 9:05pm

Mon Mar 30, 8:04pm

Mon Mar 30, 7:04pm

Mon Mar 30, 6:04pm

Mon Mar 30, 5:05pm

Mon Mar 30, 4:04pm

Mon Mar 30, 3:04pm

Mon Mar 30, 2:04pm

Mon Mar 30, 1:04pm

Mon Mar 30, 12:04pm

Mon Mar 30, 11:04am

Mon Mar 30, 10:04am

Mon Mar 30, 9:04am

Mon Mar 30, 8:04am

Mon Mar 30, 7:04am

Mon Mar 30, 6:04am

Mon Mar 30, 5:04am

Mon Mar 30, 4:04am

Mon Mar 30, 3:05am

Mon Mar 30, 2:04am

Mon Mar 30, 1:04am

Mon Mar 30, 12:04am

Sun Mar 29, 11:04pm

Sun Mar 29, 10:05pm

Sun Mar 29, 9:04pm

Sun Mar 29, 8:04pm

Sun Mar 29, 7:04pm

Sun Mar 29, 6:04pm

Sun Mar 29, 5:05pm

Sun Mar 29, 4:04pm

Sun Mar 29, 3:04pm

Sun Mar 29, 2:04pm

Sun Mar 29, 1:05pm

Sun Mar 29, 12:04pm

Sun Mar 29, 11:04am

Sun Mar 29, 10:04am

Sun Mar 29, 9:04am

Sun Mar 29, 8:04am

Sun Mar 29, 7:04am

Sun Mar 29, 6:04am

Sun Mar 29, 5:04am

Meta data:

ID: 0f923d84-ee8d-4469-a564-0d6550417da8
Link: https://api.weather.gov/products/0f923d84-ee8d-4469-a564-0d6550417da8